User: anonymous   Login
Location: Newark
(30.0333°N, 31.2167°E)
Time: 13:27:56
(UTC+00:00)
Language:

Tiros 1 despin weight - Orbit

View from above orbital plane
View from above orbital plane
View from above satellite
View from above satellite

Ground track
Ground track

The orbit data is extracted from the following two-line orbital elements,

1 00115U 60002D   21016.27393054  .00000022  00000-0  29762-4 0  9992
2 00115  48.1675 330.7945 0033613 106.7590 253.7015 14.83682278223419
Epoch (UTC): 16 January 2021 06:34:27
Eccentricity: 0.0033613
inclination: 48.1675°
perigee height: 594 km
apogee height: 641 km
right ascension of ascending node: 330.7945°
argument of perigee: 106.7590°
revolutions per day: 14.83682278
mean anomaly at epoch: 253.7015°
orbit number at epoch: 22341

The dashed part of the orbit path shows where the satellite is in the earth's shadow,  

DLR